Tracking 22881 objects as of 20-Apr-2021
HD Live streaming from Space Station
objects crossing your sky now

STARLINK-2093

Track STARLINK-2093 now!
10-day predictions
STARLINK-2093 is classified as:


NORAD ID: 47374
Int'l Code: 2021-005AB
Perigee: 553.8 km
Apogee: 555.1 km
Inclination: 53.1 °
Period: 95.6 minutes
Semi major axis: 6925 km
RCS: Unknown
Launch date: January 20, 2021
Source: United States (US)
Launch site: AIR FORCE EASTERN TEST RANGE (AFETR)
aabbcc
Your satellite tracking list
Your tracking list is empty




NASA's NSSDC Master Catalog

Two Line Element Set (TLE):
1 47374U 21005AB  21109.91667824  .00021404  00000-0  14528-2 0  9992
2 47374  53.0544 153.7706 0000939  71.9345 329.2893 15.06365089 14034
Source of the keplerian elements: AFSPC